DW6366 Heerjansdam NL current weather conditions

sailwx.info

Wind from 184 at 3 knots gusting 6

Air temperature 16.7° C
Dewpoint 14.7° C

Last reported at 2018-Sep-19 07:02 UTC.
Time now 2018-Sep-19 07:35 UTC

Location: N 51°50' E 004°34'.
View on Google Maps.

See reports from other nearby stations

  
Tides and Currents Weather Stations Pressure Air Temp Water Temp Dewpoint Dewpoint Depression Visibility Wind Speed Wind Dir Waves Ship Positions
date/time (UTC)wind fromknots sea level pressurealtimeterstation pressurevisibilityair tempwater tempwave heightnotes
2018-Sep-19 07:02 184 3 gusting 6 16.7
2018-Sep-19 06:52 178 3 gusting 5 16.7
2018-Sep-19 06:42 227 3 gusting 6 16.1
2018-Sep-19 06:32 183 3 gusting 7 15.6
2018-Sep-19 06:22 157 2 gusting 6 15.6
2018-Sep-19 06:12 142 1 gusting 6 15.0
2018-Sep-19 06:03 162 2 gusting 4 14.4
2018-Sep-19 05:52 142 1 gusting 4 14.4
2018-Sep-19 05:42 188 0 gusting 2 14.4
2018-Sep-19 05:32 167 0 gusting 2 14.4
2018-Sep-19 05:22 160 0 gusting 2 14.4
2018-Sep-19 05:12 165 1 gusting 3 14.4
2018-Sep-19 05:03 144 1 gusting 2 14.4
2018-Sep-19 04:52 144 0 gusting 3 14.4
2018-Sep-19 04:42 142 14.4
2018-Sep-19 04:32 129 14.4
2018-Sep-19 04:22 129 0 gusting 1 14.4
2018-Sep-19 04:12 129 14.4
2018-Sep-19 04:03 129 0 gusting 1 14.4
2018-Sep-19 03:52 130 0 gusting 1 15.0
2018-Sep-19 03:42 132 0 gusting 1 15.0
2018-Sep-19 03:32 130 0 gusting 1 15.0
2018-Sep-19 03:22 130 15.0
2018-Sep-19 03:12 130 15.0
2018-Sep-19 03:02 125 1 gusting 2 15.0
2018-Sep-19 02:52 152 0 gusting 1 15.6
2018-Sep-19 02:42 152 1 gusting 2 15.6
2018-Sep-19 02:32 164 0 gusting 1 15.6
2018-Sep-19 02:22 164 0 gusting 2 15.6
2018-Sep-19 02:12 213 1 gusting 3 15.6
2018-Sep-19 02:02 213 0 gusting 2 15.6
2018-Sep-19 01:52 225 1 gusting 3 15.6
2018-Sep-19 01:42 182 0 gusting 4 15.6
2018-Sep-19 01:32 199 0 gusting 2 15.6
2018-Sep-19 01:22 148 1 gusting 2 15.6
2018-Sep-19 01:12 145 0 gusting 2 15.6
2018-Sep-19 01:02 148 0 gusting 2 15.6
2018-Sep-19 00:52 203 1 gusting 2 15.6
2018-Sep-19 00:42 179 1 gusting 3 15.6
2018-Sep-19 00:32 196 0 gusting 4 15.6
2018-Sep-19 00:22 213 1 gusting 3 15.6
2018-Sep-19 00:12 188 1 gusting 2 15.6
2018-Sep-19 00:03 137 1 gusting 3 15.6
2018-Sep-18 23:42 161 1 gusting 3 16.1
2018-Sep-18 23:32 178 1 gusting 2 16.1
2018-Sep-18 23:22 175 0 gusting 3 16.1
2018-Sep-18 23:12 203 1 gusting 3 16.1
2018-Sep-18 23:02 203 1 gusting 2 16.7
2018-Sep-18 22:52 177 1 gusting 2 16.7
2018-Sep-18 22:42 197 1 gusting 2 16.7
2018-Sep-18 22:32 240 1 gusting 4 16.7
2018-Sep-18 22:12 222 1 gusting 4 16.7
2018-Sep-18 21:52 208 1 gusting 4 17.2
2018-Sep-18 21:42 203 1 gusting 4 17.2
2018-Sep-18 21:22 265 1 gusting 5 17.8
2018-Sep-18 21:12 213 1 gusting 6 17.8
2018-Sep-18 21:02 203 2 gusting 6 17.8
2018-Sep-18 20:52 263 2 gusting 7 17.8
2018-Sep-18 20:42 188 2 gusting 7 17.8
2018-Sep-18 20:32 303 2 gusting 9 17.8
2018-Sep-18 20:22 252 2 gusting 6 18.3
2018-Sep-18 20:12 246 3 gusting 7 18.3
2018-Sep-18 20:03 208 3 gusting 8 18.3
2018-Sep-18 19:52 203 3 gusting 7 18.3
2018-Sep-18 19:42 236 3 gusting 12 18.3
2018-Sep-18 19:32 196 3 gusting 13 18.3
2018-Sep-18 19:22 257 2 gusting 8 18.3
2018-Sep-18 19:12 241 3 gusting 8 18.3
2018-Sep-18 19:03 184 5 gusting 10 18.9
2018-Sep-18 18:52 171 4 gusting 11 18.9
2018-Sep-18 18:42 285 6 gusting 11 18.9
2018-Sep-18 18:32 248 1 gusting 9 19.4
2018-Sep-18 18:22 228 5 gusting 8 19.4
2018-Sep-18 18:12 279 4 gusting 13 19.4
2018-Sep-18 18:03 292 5 gusting 13 19.4
2018-Sep-18 17:52 192 4 gusting 9 20.0
2018-Sep-18 17:42 261 4 gusting 8 20.0
2018-Sep-18 17:35 277 2 gusting 8 20.6
2018-Sep-18 17:22 289 2 gusting 9 21.1
2018-Sep-18 17:12 159 2 gusting 5 21.1
2018-Sep-18 17:02 177 2 gusting 6 21.7
2018-Sep-18 16:52 235 2 gusting 6 21.7
2018-Sep-18 16:42 208 3 gusting 9 21.7
2018-Sep-18 16:32 198 3 gusting 13 21.7
2018-Sep-18 16:22 299 6 gusting 13 21.7
2018-Sep-18 16:12 269 6 gusting 13 22.2
2018-Sep-18 16:03 253 4 gusting 13 22.8
2018-Sep-18 15:52 234 6 gusting 13 22.8
2018-Sep-18 15:42 258 6 gusting 15 23.9
2018-Sep-18 15:32 228 5 gusting 10 24.4
2018-Sep-18 15:22 300 6 gusting 17 24.4
2018-Sep-18 15:12 228 7 gusting 14 25.0
2018-Sep-18 15:02 190 6 gusting 11 25.0
2018-Sep-18 14:52 259 7 gusting 17 25.0
2018-Sep-18 14:42 246 6 gusting 13 25.0
2018-Sep-18 14:32 189 6 gusting 13 25.0
2018-Sep-18 14:22 252 6 gusting 15 25.0
2018-Sep-18 14:12 191 8 gusting 13 25.6
2018-Sep-18 14:02 213 6 gusting 14 25.6
2018-Sep-18 13:52 242 7 gusting 19 25.6
2018-Sep-18 13:42 279 6 gusting 14 25.0
2018-Sep-18 13:32 219 7 gusting 13 25.0
2018-Sep-18 13:12 221 5 gusting 13 25.6
2018-Sep-18 13:02 260 6 gusting 14 25.0
2018-Sep-18 12:52 276 6 gusting 14 25.0
2018-Sep-18 12:42 190 6 gusting 14 25.0
2018-Sep-18 12:32 194 5 gusting 13 24.4
2018-Sep-18 12:22 203 9 gusting 15 24.4
2018-Sep-18 12:12 175 8 gusting 16 24.4
2018-Sep-18 12:02 240 5 gusting 13 24.4
2018-Sep-18 11:52 150 6 gusting 13 24.4
2018-Sep-18 11:42 175 6 gusting 13 24.4
2018-Sep-18 11:32 230 6 gusting 12 24.4
2018-Sep-18 11:12 262 5 gusting 10 24.4
2018-Sep-18 11:02 188 6 gusting 13 23.9
2018-Sep-18 10:52 227 9 gusting 13 23.9
2018-Sep-18 10:42 219 6 gusting 12 23.9
2018-Sep-18 10:32 218 4 gusting 10 23.3
2018-Sep-18 10:22 332 6 gusting 13 23.3
2018-Sep-18 10:12 143 6 gusting 13 22.8
2018-Sep-18 10:03 268 6 gusting 13 23.3
2018-Sep-18 09:52 276 4 gusting 9 23.3
2018-Sep-18 09:42 185 6 gusting 13 22.8
2018-Sep-18 09:32 234 6 gusting 12 22.2
2018-Sep-18 09:22 208 6 gusting 11 22.8
2018-Sep-18 09:12 244 5 gusting 10 22.2
2018-Sep-18 09:02 240 4 gusting 11 22.2
2018-Sep-18 08:52 179 6 gusting 12 22.2
2018-Sep-18 08:42 184 5 gusting 13 21.7
2018-Sep-18 08:32 213 6 gusting 11 21.7
2018-Sep-18 08:22 234 5 gusting 8 21.1
2018-Sep-18 08:12 234 5 gusting 10 21.1
2018-Sep-18 08:02 220 3 gusting 9 21.1
2018-Sep-18 07:52 272 6 gusting 11 20.6
2018-Sep-18 07:42 174 5 gusting 11 20.0
2018-Sep-18 07:32 173 4 gusting 6 19.4
2018-Sep-18 07:22 161 3 gusting 6 18.9
2018-Sep-18 07:12 208 2 gusting 6 18.3
2018-Sep-18 06:52 203 3 gusting 7 18.3
2018-Sep-18 06:42 213 2 gusting 6 17.8
2018-Sep-18 06:32 155 3 gusting 5 17.8
2018-Sep-18 06:22 179 2 gusting 5 17.2
2018-Sep-18 06:12 203 2 gusting 5 16.7
2018-Sep-18 06:02 198 1 gusting 4 16.7
2018-Sep-18 05:52 179 1 gusting 4 16.7
2018-Sep-18 05:42 159 1 gusting 5 16.7
2018-Sep-18 05:32 136 2 gusting 6 16.7
2018-Sep-18 05:22 176 1 gusting 6 16.7
2018-Sep-18 05:12 133 3 gusting 7 16.7
2018-Sep-18 05:02 159 2 gusting 7 16.1
2018-Sep-18 04:52 175 2 gusting 5 16.1
2018-Sep-18 04:42 208 2 gusting 6 16.1
2018-Sep-18 04:32 152 2 gusting 4 16.1
2018-Sep-18 04:22 131 3 gusting 6 16.1
2018-Sep-18 04:12 142 2 gusting 6 16.1
2018-Sep-18 04:02 140 1 gusting 5 15.6
2018-Sep-18 03:52 129 1 gusting 4 15.6
2018-Sep-18 03:42 131 2 gusting 5 15.6
2018-Sep-18 03:32 126 1 gusting 6 15.6
2018-Sep-18 03:22 135 1 gusting 5 15.0
2018-Sep-18 03:02 133 2 gusting 3 15.0
2018-Sep-18 02:52 123 2 gusting 5 15.0
2018-Sep-18 02:42 129 2 gusting 5 15.0
2018-Sep-18 02:32 137 0 gusting 3 15.6
2018-Sep-18 02:22 136 1 gusting 4 15.6
2018-Sep-18 02:12 152 1 gusting 5 15.6
2018-Sep-18 02:02 128 1 gusting 5 15.6
2018-Sep-18 01:52 179 2 gusting 4 15.6
2018-Sep-18 01:42 150 1 gusting 3 15.6
2018-Sep-18 01:32 150 1 gusting 3 15.6
2018-Sep-18 01:22 146 1 gusting 3 16.1
2018-Sep-18 01:12 141 1 gusting 4 16.1
2018-Sep-18 01:02 134 1 gusting 3 16.1
2018-Sep-18 00:52 160 1 gusting 3 16.1
2018-Sep-18 00:42 136 1 gusting 3 16.1
2018-Sep-18 00:32 106 1 gusting 3 16.1
2018-Sep-18 00:22 136 0 gusting 4 16.1
2018-Sep-18 00:12 155 1 gusting 6 16.1
2018-Sep-18 00:02 155 2 gusting 3 16.1
2018-Sep-17 23:52 132 1 gusting 3 16.1
2018-Sep-17 23:42 174 1 gusting 4 16.1
2018-Sep-17 23:32 143 1 gusting 4 16.1
2018-Sep-17 23:22 134 1 gusting 3 16.1
2018-Sep-17 23:12 148 1 gusting 4 16.1
2018-Sep-17 23:02 144 1 gusting 3 15.6
2018-Sep-17 22:52 137 1 gusting 3 15.6
2018-Sep-17 22:42 123 1 gusting 3 15.0
2018-Sep-17 22:32 126 1 gusting 3 15.0
2018-Sep-17 22:22 150 1 gusting 4 14.4
2018-Sep-17 22:12 139 1 gusting 3 14.4
2018-Sep-17 21:52 117 0 gusting 2 14.4
2018-Sep-17 21:42 132 1 gusting 1 14.4
2018-Sep-17 21:32 136 0 gusting 1 14.4
2018-Sep-17 21:12 136 0 gusting 1 15.0
2018-Sep-17 21:02 136 15.0
2018-Sep-17 20:52 136 15.0
2018-Sep-17 20:42 136 15.6
2018-Sep-17 20:32 136 0 gusting 1 15.6
2018-Sep-17 20:22 159 16.1
2018-Sep-17 20:12 159 16.1
2018-Sep-17 20:02 159 16.1
2018-Sep-17 19:52 159 16.7
2018-Sep-17 19:42 159 16.7
2018-Sep-17 19:32 159 17.2
2018-Sep-17 19:22 159 17.8
2018-Sep-17 19:12 159 17.8
2018-Sep-17 19:03 159 18.3
2018-Sep-17 18:42 159 19.4
2018-Sep-17 18:32 159 20.0
2018-Sep-17 18:22 159 20.6
2018-Sep-17 18:14 159 20.6
2018-Sep-17 18:03 159 0 gusting 1 21.1
2018-Sep-17 17:42 159 0 gusting 0 22.2
2018-Sep-17 17:33 159 22.8
2018-Sep-17 17:02 148 0 gusting 1 23.9
2018-Sep-17 16:42 175 1 gusting 3 24.4
2018-Sep-17 16:32 140 0 gusting 2 24.4
2018-Sep-17 16:22 175 0 gusting 2 25.0
2018-Sep-17 16:12 213 0 gusting 4 25.0
2018-Sep-17 16:02 179 1 gusting 4 25.6
2018-Sep-17 15:52 192 2 gusting 4 25.6
2018-Sep-17 15:43 242 2 gusting 6 26.7
2018-Sep-17 15:32 203 1 gusting 4 26.7
2018-Sep-17 15:22 232 1 gusting 4 27.2
2018-Sep-17 15:12 148 2 gusting 6 26.7
2018-Sep-17 15:02 190 3 gusting 6 26.7
2018-Sep-17 14:52 183 3 gusting 5 27.2
2018-Sep-17 14:42 184 2 gusting 5 27.2
2018-Sep-17 14:32 154 2 gusting 5 26.1
2018-Sep-17 14:22 188 3 gusting 6 26.1
2018-Sep-17 14:12 159 3 gusting 6 26.1
2018-Sep-17 14:02 184 1 gusting 6 26.1
2018-Sep-17 13:52 169 3 gusting 5 26.1
2018-Sep-17 13:42 160 2 gusting 4 26.1
2018-Sep-17 13:32 150 2 gusting 7 25.6
2018-Sep-17 13:22 181 1 gusting 6 26.1
2018-Sep-17 13:14 243 1 gusting 5 25.6
2018-Sep-17 13:02 227 3 gusting 5 25.6
2018-Sep-17 12:52 162 3 gusting 5 25.0
2018-Sep-17 12:42 167 3 gusting 6 25.0
2018-Sep-17 12:32 290 2 gusting 6 24.4
2018-Sep-17 12:22 203 3 gusting 6 25.0
2018-Sep-17 12:12 220 3 gusting 7 24.4
2018-Sep-17 12:02 203 4 gusting 8 23.9
2018-Sep-17 11:52 196 4 gusting 9 23.9
2018-Sep-17 11:42 213 4 gusting 9 23.9
2018-Sep-17 11:22 198 2 gusting 6 23.9
2018-Sep-17 11:12 290 3 gusting 6 23.9
2018-Sep-17 11:02 246 3 gusting 7 23.3
2018-Sep-17 10:52 213 4 gusting 7 23.3
2018-Sep-17 10:42 208 3 gusting 7 22.8
2018-Sep-17 10:32 198 3 gusting 7 22.8
2018-Sep-17 10:22 192 3 gusting 6 22.2
2018-Sep-17 10:12 217 3 gusting 5 21.7
2018-Sep-17 10:02 271 3 gusting 6 21.1
2018-Sep-17 09:52 196 3 gusting 6 21.1
2018-Sep-17 09:42 265 3 gusting 8 21.1
2018-Sep-17 09:32 203 2 gusting 5 21.1
2018-Sep-17 09:22 261 3 gusting 8 20.6
2018-Sep-17 09:12 266 2 gusting 6 20.0
2018-Sep-17 09:02 234 1 gusting 5 19.4
2018-Sep-17 08:52 225 3 gusting 5 19.4
2018-Sep-17 08:42 189 2 gusting 5 18.9
2018-Sep-17 08:32 187 2 gusting 5 18.3
2018-Sep-17 08:22 127 2 gusting 5 17.8
2018-Sep-17 08:12 223 2 gusting 5 17.2
2018-Sep-17 08:03 173 3 gusting 5 17.2
2018-Sep-17 07:52 183 1 gusting 4 16.7
2018-Sep-17 07:42 213 2 gusting 5 16.1
2018-Sep-17 07:22 176 1 gusting 4 15.0
2018-Sep-17 07:12 196 2 gusting 6 15.0
2018-Sep-17 07:03 208 2 gusting 5 13.9